Flag for Austria Weather past 2 weeks in Oberpullendorf, Burgenland, Austria

Now
36 °F

Chilly.


Feels Like: 36 °F
Forecast: 30 / 50 °F
Wind: 2 mph from Northwest

Location: Eisenstadt

Current Time: Mar 1, 2015 at 12:35:25 AM

Latest Report: Feb 28, 2015 at 11:00 PM


Visibility: N/A

Pressure: 30.11 "Hg

Humidity: 80%

Dew point: 30 °F

Location of OberpullendorfLocation

Historic Weather in Oberpullendorf — Graph

°F

Oberpullendorf temperature yesterday

Maximum temperature yesterday: 49 °F (at 3:00 PM)
Minimum temperature yesterday: 33 °F (at 5:00 AM)
Average temperature yesterday: 42 °F

Past Weeks' High & Low Weather Summary

 TemperatureHumidityPressure
High57 °F (Feb 21, 3:00 PM)100% (Feb 20, 10:00 AM)30.78 "Hg (Feb 20, 10:00 AM)
Low27 °F (Feb 20, 5:00 AM)30% (Feb 21, 12:00 PM)29.57 "Hg (Feb 21, 3:00 PM)
Average39 °F77%30.08 "Hg
* Reported Feb 13 11:00 PM — Feb 28 11:00 PM, Oberpullendorf, Weather by CustomWeather, © 2015

Note: Actual official high and low records may vary slightly from our data, if they occured in-between our weather recording intervals... More about our weather records

Advertising

Oberpullendorf weather history for previous 24 hours

 ConditionsComfort  
Time TempWeatherWind HumidityBarometerVisibility
11:00 PM
Sat, Feb 28
36 °FChilly.2 mph80%30.11 "HgN/A
10:00 PM39 °FPassing clouds.1 mph72%30.12 "Hg11 mi
9:00 PM40 °FChilly.1 mph70%30.12 "HgN/A
8:00 PM42 °FQuite cool.6 mph63%30.11 "HgN/A
7:00 PM42 °FPassing clouds.5 mph66%30.11 "Hg9 mi
6:00 PM44 °FQuite cool.3 mph63%30.11 "HgN/A
5:00 PM46 °FCool.5 mph59%30.10 "HgN/A
4:00 PM48 °FPassing clouds.5 mph54%30.10 "Hg12 mi
3:00 PM49 °FCool.5 mph55%30.09 "HgN/A
2:00 PM48 °FCool.6 mph55%30.10 "HgN/A
1:00 PM47 °FPassing clouds.5 mph57%30.11 "Hg12 mi
12:00 PM48 °FCool.5 mph58%30.12 "HgN/A
11:00 AM47 °FCool.6 mph57%30.11 "HgN/A
10:00 AM45 °FSunny.6 mph63%30.10 "Hg12 mi
9:00 AM43 °FQuite cool.6 mph69%30.09 "HgN/A
8:00 AM42 °FQuite cool.5 mph66%30.08 "HgN/A
7:00 AM41 °FSunny.6 mph67%30.05 "Hg12 mi
6:00 AM37 °FClear.3 mph81%30.06 "Hg9 mi
5:00 AM33 °FClear.1 mph92%30.06 "Hg6 mi
4:00 AM36 °FClear.2 mph89%30.04 "Hg6 mi
3:00 AM37 °FChilly.1 mph87%30.04 "HgN/A
2:00 AM38 °FChilly.1 mph86%30.04 "HgN/A
1:00 AM38 °FOvercast.1 mph86%30.03 "Hg6 mi
12:00 AM38 °FChilly.1 mph87%30.03 "HgN/A
Weather by CustomWeather, © 2015

See weather overviewHow to use our weather pages